User: anonymous   Login
Location: Caltech
(34.1382°N, 118.1253°W)
Time: 09:06:21
(UTC-07:00)
Language:

Cosmos 44 Rocket - Orbit

View from above orbital plane
View from above orbital plane
View from above satellite
View from above satellite

Ground track
Ground track

The orbit data is extracted from the following two-line orbital elements,

1 00877U 64053B   15147.97746213  .00000025  00000-0  30197-4 0  9998
2 00877 065.0786 327.0690 0055850 033.3934 327.0666 14.59117420691900
Epoch (UTC): 27 May 2015 23:27:32
Eccentricity: 0.0055850
inclination: 65.0786°
perigee height: 656 km
apogee height: 735 km
right ascension of ascending node: 327.0690°
argument of perigee: 33.3934°
revolutions per day: 14.59117420
mean anomaly at epoch: 327.0666°
orbit number at epoch: 69190

The dashed part of the orbit path shows where the satellite is in the earth's shadow,  

DLR